Date,TemperatureHighF,TemperatureAvgF,TemperatureLowF,DewpointHighF,DewpointAvgF,DewpointLowF,HumidityHigh,HumidityAvg,HumidityLow,PressureMaxIn,PressureMinIn,WindSpeedMaxMPH,WindSpeedAvgMPH,GustSpeedMaxMPH,PrecipitationSumIn
2013-3-1,57.9,49.3,42.4,40.0,37.1,33.7,74,63,46,30.14,29.97,11,2,11,0.00
2013-3-2,58.2,50.3,44.9,45.7,40.9,38.4,81,70,55,29.98,29.84,18,2,18,0.00
2013-3-3,55.0,50.6,46.4,45.9,41.4,36.4,88,71,59,29.93,29.73,24,7,24,0.37
2013-3-4,59.1,49.7,42.9,44.3,39.2,36.8,79,68,46,30.14,29.92,12,1,12,0.00
2013-3-5,55.5,48.6,45.3,41.7,37.7,33.9,76,66,52,30.38,30.13,16,3,16,0.00
2013-3-6,57.9,50.3,44.4,39.7,35.9,31.0,68,58,37,30.36,30.11,21,4,21,0.00
2013-3-7,56.3,52.5,50.5,50.5,45.5,39.6,86,77,65,30.11,29.89,8,1,8,0.16
2013-3-8,62.9,55.6,49.8,51.6,48.9,28.7,88,79,62,29.89,29.81,12,1,12,0.02
2013-3-9,67.6,59.1,51.4,53.5,50.3,28.6,90,74,57,29.83,29.68,13,2,13,0.00
2013-3-10,67.6,58.6,52.8,50.9,48.2,44.6,82,69,44,29.79,29.69,14,2,14,0.00
2013-3-11,69.6,61.4,53.7,55.2,51.3,27.9,86,70,28,29.69,29.54,14,2,14,0.00
2013-3-12,68.7,62.5,56.3,46.5,43.6,40.3,67,51,36,29.69,29.55,15,4,15,0.00
2013-3-13,66.7,59.8,52.3,52.0,46.0,42.2,78,61,43,29.71,29.65,15,3,15,0.00
2013-3-14,69.4,62.3,57.2,57.1,48.1,35.3,82,61,36,29.68,29.27,22,6,22,0.00
2013-3-15,61.8,56.4,49.8,44.2,40.7,37.3,63,56,46,29.57,29.34,22,6,22,0.00
2013-3-16,55.5,49.9,45.3,42.2,37.0,34.2,70,61,46,29.96,29.56,12,2,12,0.02
2013-3-17,54.5,48.1,42.9,36.2,34.3,30.5,73,59,41,30.14,29.96,10,2,10,0.00
2013-3-18,55.4,49.9,43.5,46.0,40.1,34.4,79,69,53,30.15,29.91,13,2,13,0.00
2013-3-19,63.6,58.2,52.1,52.3,49.5,45.8,81,73,63,29.92,29.75,19,4,19,0.00
2013-3-20,68.1,59.9,50.7,54.6,49.0,46.7,86,69,52,29.87,29.78,13,2,13,0.00
2013-3-21,65.6,61.3,57.3,55.2,51.9,28.2,81,72,60,29.78,29.51,15,3,15,0.00
2013-3-22,64.9,58.1,51.8,44.8,37.5,24.1,66,47,35,29.73,29.50,25,6,25,0.00
2013-3-23,64.9,55.8,47.6,39.2,29.1,19.5,60,38,19,29.94,29.73,15,3,15,0.00
2013-3-24,66.5,57.9,49.1,49.5,44.5,39.0,74,61,48,29.98,29.89,14,2,14,0.00
2013-3-25,65.1,59.9,54.8,53.3,50.4,46.6,81,71,59,29.91,29.57,20,5,20,0.00
2013-3-26,67.6,60.5,54.8,52.5,47.8,43.9,81,64,47,29.61,29.48,22,4,22,0.00
2013-3-27,68.1,60.2,53.7,51.5,46.9,42.7,70,62,49,29.80,29.61,20,3,20,0.00
2013-3-28,65.6,58.8,54.3,52.6,48.6,36.8,83,69,60,30.02,29.80,12,2,12,0.10
2013-3-29,67.8,59.6,52.3,52.8,50.4,47.3,85,72,55,30.02,29.95,15,2,15,0.10
2013-3-30,75.9,65.1,55.9,55.6,51.1,48.1,81,62,39,29.96,29.80,16,2,16,0.10
2013-3-31,72.6,63.2,57.7,57.1,52.5,42.2,76,68,54,29.82,29.70,20,2,20,0.10